Showing default

EXPLORER 7, 22

Orbit data source: Space-Track

EXPLORER 7, 22 is a payload satellite owned by GSFC (US) in LEO that was launched on Tue, 13 Oct 1959 UTC via a JUNO II launch vehicle from the Air Force Eastern Test Range (AFETR). Payload-class satellites include a variety of spacecraft equipped with specific instruments for various scientific and technological missions. These include communications satellites like Starlink; space stations such as the ISS; scientific satellites like the Hubble; Earth observation satellites from companies like Planet Labs, Umbra, and HawkEye 360; GPS; miniature CubeSats for education and research; and military/defense satellites.

Loading next visibility...
Identifier
22, 1959-009A
Orbit
LEO
Country
Flag of USUS
Related business
Manufacturer
ABMA
Mission
Civil Science
Bus & Motor
S-1, Unknown motor
Mass
41 kg wet, 41 kg dry
Launch date (UTC)
1959-10-13 (66 years ago)
Launch vehicle
JUNO II
Launch site
Air Force Eastern Test Range (AFETR)
Object type
Payload
Rocket body
Debris
Shape & HBR
Cone + Cone, 0.4 m
Radar Cross Section
0.454 m², Medium (>0.1 m² and < 1m²)

Expand to show TLE details & history
Last TLE update: 12 hours ago

TLE from 12 hours ago
0 EXPLORER 7
1 00022U 59009A   25258.56687457  .00012820  00000-0  52537-3 0  9995
2 00022  50.2712  10.4563 0087472 102.4476 258.6287 15.21122699758437
Epoch: 2025-09-15T13:36Z
TLE epoch observation values (Epoch: 2025-09-15T13:36:17.962Z)
Latitude
-0.00001°
Longitude
171.61177°
Altitude
515.407 km
Speed
7.6 km/s
True Right ascension
00h 41m 49s
True Declination
0° 00' 00"
Sunlit
Object was in full shadow at epoch
Visualization orbit readout
Latitude
Unknown
Longitude
Unknown
Altitude
Unknown
Speed
Unknown
Apparent Right ascension
Unknown
Apparent Declination
Unknown
Sunlit
N/A
Visualization observer readout
Local Sidereal Time
18:17:09
Azimuth
Unknown
Elevation
Unknown
Doppler factor
Unknown
Orbital elements
Apogee altitude
563.371 km
Perigee altitude
442.987 km
Semi-major axis
6,881.316 km
Eccentricity
0.00875
Inclination
50.2712°
RAAN
10.4563°
Arg. of periapsis
102.4476°
True anomaly
257.64818°
Mean anomaly
258.6287°
Eccentric anomaly
258.13822°
Mean motion
3.80221 °/min
Orbital period
94.68 mins
BSTAR
0.00052537
Loading maneuver chart data...
Computing Atmospheric mass density...
Loading historical data...
Loading historical data...
Loading historical data...
Loading historical data...
Loading historical data...
Loading historical data...
Loading historical data...
Other satellites on launch #9 in the year 1959 (1959-10-13 UTC)

Documentation

Showing up to 5 results
|